User: anonymous   Login
Location: Unspecified
(0.0000°N, 0.0000°E)
Time: 05:32:07
(UTC+00:00)
Language:

PAYLOAD D - Orbit

View from above orbital plane
View from above orbital plane
View from above satellite
View from above satellite

Ground track
Ground track

The orbit data is extracted from the following two-line orbital elements,

1 27058U 01058D   17177.86299929 +.00000012 +00000-0 +86615-5 0  9997
2 27058 082.5336 144.2975 0002255 205.4443 154.6538 12.62017058713880
Epoch (UTC): 26 June 2017 20:42:43
Eccentricity: 0.0002255
inclination: 82.5336°
perigee height: 1413 km
apogee height: 1416 km
right ascension of ascending node: 144.2975°
argument of perigee: 205.4443°
revolutions per day: 12.62017058
mean anomaly at epoch: 154.6538°
orbit number at epoch: 71388

The dashed part of the orbit path shows where the satellite is in the earth's shadow,  

DLR